Location: Proctor
(47.8934°N, 114.3048°W)
Time: 20:58:31
(UTC+00:00)

Tiros 1 despin weight - Pass Details

Date: 26 June 2024
Orbit: 576 x 620 km, 48.2° (Epoch: 19 July)

Event Time Altitude Azimuth Distance (km) Brightness Sun altitude
Rises 23:22:11 0° 285° (WNW) 2,898 ? 40.0°
Reaches altitude 10° 23:24:36 10° 278° (W) 1,988 ? 39.6°
Maximum altitude 23:28:52 40° 209° (SSW) 920 ? 38.9°
Drops below altitude 10° 23:33:05 10° 140° (SE) 1,967 ? 38.2°
Sets 23:35:28 0° 133° (SE) 2,862 ? 37.8°
